Regional Weather Roundup
Issued by NWS Boston, MA

Home | Current Version | Previous Version | Text Only | Print | Product List | Glossary On
Versions: 1 2 3 4 5 6 7 8 9 10 11 12 13 14 15 16 17 18 19 20 21 22 23 24 25 26 27 28 29 30 31 32 33 34 35 36 37 38 39 40 41 42 43 44 45 46 47 48 49 50
000
ASUS41 KBOX 301210
RWRBOX

REGIONAL WEATHER ROUNDUP
NATIONAL WEATHER SERVICE TAUNTON MA
800 AM EDT SAT AUG 30 2014

NOTE:  "FAIR" INDICATES FEW OR NO CLOUDS BELOW 12,000 FEET WITH NO
SIGNIFICANT WEATHER AND/OR OBSTRUCTIONS TO VISIBILITY.  THE FOLLOWING
OBSERVATION LOCATIONS DO NOT REPORT PRESENT WEATHER...PROVINCETOWN...
SMITHFIELD...BLOCK ISLAND...KEENE...AND OXFORD.

MAZALL-301300-
EASTERN MASSACHUSETTS

CITY           SKY/WX    TMP DP  RH WIND       PRES   REMARKS
BOSTON         MOSUNNY   62  57  83 S7        30.31S
6HR MIN TEMP:  58; 6HR MAX TEMP:  63;

BEVERLY        SUNNY     62  58  86 S6        30.31R
LAWRENCE       SUNNY     59  56  89 S7        30.32S
BEDFORD        MOSUNNY   58  55  90 CALM      30.30S
BLUE HILL        N/A     60  56  86 S8        30.31S
NORWOOD        SUNNY     57  55  93 CALM      30.31S
MARSHFIELD     SUNNY     61  57  88 S6        30.33F
PLYMOUTH       SUNNY     59  54  83 CALM      30.33R
TAUNTON        SUNNY     57  53  86 CALM      30.32R
NEW BEDFORD    SUNNY     57  54  89 CALM      30.31S
$$

MAZALL-301300-
CAPE COD AND THE ISLANDS

CITY           SKY/WX    TMP DP  RH WIND       PRES   REMARKS
FALMOUTH       SUNNY     59  54  82 CALM      30.33R
HYANNIS        SUNNY     62  51  67 SE5       30.31S
CHATHAM        SUNNY     61  52  72 S5        30.33S
PROVINCETOWN   SUNNY     63  54  72 S6        30.33R
NANTUCKET      SUNNY     61  51  70 SE7       30.33S
MARTHAS VNYRD  SUNNY     60  53  77 S5        30.33R
$$

MAZALL-301300-
CENTRAL AND WESTERN MASSACHUSETTS

CITY           SKY/WX    TMP DP  RH WIND       PRES   REMARKS
WORCESTER      PTSUNNY   60  57  89 SW9       30.31S
6HR MIN TEMP:  54; 6HR MAX TEMP:  60;

FITCHBURG      SUNNY     58  53  84 SE3       30.31S
ORANGE         PTSUNNY   53  51  93 CALM      30.29F
SPRINGFIELD    MOSUNNY   58  57  98 S2        30.28F
WESTFIELD      MOSUNNY   57  54  89 CALM      30.29S
NORTH ADAMS    SUNNY     56  53  90 E8        30.28S
PITTSFIELD     MOSUNNY   54  53  97 NE3       30.28S
$$

RIZALL-301300-
RHODE ISLAND

CITY           SKY/WX    TMP DP  RH WIND       PRES   REMARKS
PROVIDENCE     MOSUNNY   60  56  86 CALM      30.32S
6HR MIN TEMP:  55; 6HR MAX TEMP:  60;

NEWPORT        SUNNY     64  58  80 S6        30.32R
BLOCK ISLAND   SUNNY     64  57  77 SE6       30.31S
SMITHFIELD     SUNNY     57  52  82 CALM      30.32R
WESTERLY       SUNNY     58  55  90 CALM      30.31F
$$

CTZALL-301300-
CONNECTICUT

CITY           SKY/WX    TMP DP  RH WIND       PRES   REMARKS
BRADLEY INTL   MOSUNNY   61  54  77 CALM      30.28F
6HR MIN TEMP:  53; 6HR MAX TEMP:  61;

HARTFORD       SUNNY     61  58  90 SE3       30.29S
BRIDGEPORT     MOSUNNY   69  60  73 SE13      30.27F
DANBURY        CLOUDY    57  54  89 CALM      30.30S
GROTON         SUNNY     62  59  90 CALM      30.30S
NEW HAVEN      MOSUNNY   70  59  68 SE9       30.28F
CHESTER        FAIR      63  57  82 SE3       30.31S
MERIDEN        SUNNY     60  57  89 CALM      30.29F
WILLIMANTIC    FOG       53  52  96 CALM      30.32S VSB 1/4
OXFORD         SUNNY     61  55  82 SE6       30.30F
$$

MEZ002-015-021-024-NHZ003-005-008-011-012-014-VTZ005-008-301300-
NORTHERN NEW ENGLAND

CITY           SKY/WX    TMP DP  RH WIND       PRES   REMARKS
PORTLAND ME    PTSUNNY   59  55  87 W7        30.29S
6HR MIN TEMP:  51; 6HR MAX TEMP:  59;

BANGOR ME      PTSUNNY   57  52  83 S10       30.27S
CONCORD NH     CLOUDY    55  55 100 SE5       30.28F
MANCHESTER NH  PTSUNNY   57  54  89 S7        30.28F
NASHUA NH      PTSUNNY   56  55  96 CALM      30.31S
PORTSMOUTH NH  PTSUNNY   59  56  90 S5        30.29S
JAFFREY NH     CLOUDY    57  56  96 SW6       30.30F FOG
KEENE NH       MOSUNNY   54  46  76 CALM      30.28F
BURLINGTON VT  PTSUNNY   65  54  67 S15G24    30.18F
MT. WASHINGTON NOT AVBL
$$

NYZ052-076-301300-
EASTERN NEW YORK

CITY           SKY/WX    TMP DP  RH WIND       PRES   REMARKS
ALBANY         MOSUNNY   61  55  81 S7        30.25S
6HR MIN TEMP:  57; 6HR MAX TEMP:  63;

NEW YORK CITY  MOSUNNY   70  55  59 CALM      30.27S
6HR MIN TEMP:  67; 6HR MAX TEMP:  70;

$$

ANZALL-301300-
MARINE OBSERVATIONS

STATION/POSITION TIME  TEMP    WIND        PRES    VSBY  WAVE
                       AIR SEA DIR/SP/G                  HT/PER
                 (UTC) (F)     (DEG/KT/KT) (MB)    (MI)  (FT/S)
BOSTON BUOY      1150   63 67  190/ 10/ 12 1026.7R         2/11
BUZZARDS BAY     1100          150/  8/  9 1027.3R
NANTUCKET SOUND  1150   62 67  140/ 10/ 12 1026.8S         1/ 6
MASS BAY-STELLWA 1104   64 65  200/ 10/ 12   N/A    1 7/8  2/11
ISLE OF SHOALS   1200   62     220/ 14/ 15 1025.5R
S OF BLOCK IS    1108      65                N/A           3/ 8
$$

......................KEY.........................
  SKY/WX - SKY CONDITION/PRESENT WEATHER
  TMP    - TEMPERATURE IN FAHRENHEIT
  DWPT   - DEWPOINT IN FAHRENHEIT
  RH     - RELATIVE HUMIDITY IN PERCENT
  WIND   - DIRECTION AND SPEED IN MPH
  PRES   - MEAN SEA LEVEL PRESSURE IN INCHES OF HG
  WCI    - WIND CHILL INDEX
  VSB    - VISIBILITY IN MILES
  HX     - HEAT INDEX
  TC     - TEMPERATURE IN CELSIUS
  VRB    - VARIABLE WIND DIRECTION
  N/A    - NOT AVAILABLE



USA.gov is the U.S. government's official web portal to all federal, state and local government web resources and services.